Flag for Thailand Weather past 2 weeks in Hat Yai, Thailand

Now
75 °F

Rain. Partly cloudy.


Feels Like: 74 °F
Forecast: 74 / 80 °F
Wind: 6 mph from Northeast

Location: Hat Yai Airport

Current Time: Dec 20, 2014 at 7:41:34 PM

Latest Report: Dec 20, 2014 at 7:00 PM


Visibility: 2 mi

Pressure: 29.83 "Hg

Humidity: 94%

Dew point: 73 °F

Location of Hat YaiLocation

Historic Weather in Hat Yai — Graph

°F

Hat Yai temperature yesterday

Maximum temperature yesterday: 84 °F (at 11:00 AM)
Minimum temperature yesterday: 75 °F (at 2:00 AM)
Average temperature yesterday: 80 °F

Past Weeks' High & Low Weather Summary

 TemperatureHumidityPressure
High90 °F (Dec 9, 12:00 PM)100% (Dec 5, 10:00 PM)29.95 "Hg (Dec 5, 10:00 PM)
Low72 °F (Dec 12, 5:00 AM)59% (Dec 9, 12:00 PM)29.74 "Hg (Dec 7, 3:30 PM)
Average79 °F90%29.86 "Hg
* Reported Dec 5 6:00 PM — Dec 20 6:30 PM, Hat Yai, Weather by CustomWeather, © 2014

Note: Actual official high and low records may vary slightly from our data, if they occured in-between our weather recording intervals... More about our weather records

Advertising

Hat Yai weather history for previous 24 hours

 ConditionsComfort  
Time TempWeatherWind HumidityBarometerVisibility
6:30 PM
Dec 20
73 °FRain. Partly cloudy.6 mph100%29.83 "Hg2 mi
6:00 PM75 °FHeavy rain. Broken clouds.5 mph94%29.83 "Hg1 mi
5:30 PM75 °FLight rain. Broken clouds.7 mph94%29.80 "Hg3 mi
5:00 PM79 °FLight rain. Broken clouds.No wind94%29.77 "Hg3 mi
4:30 PM79 °FLight rain. Broken clouds.5 mph94%29.77 "Hg4 mi
4:00 PM81 °FLight rain. Broken clouds.5 mph94%29.77 "Hg4 mi
3:30 PM81 °FLight rain. Broken clouds.6 mph89%29.77 "Hg4 mi
3:00 PM81 °FLight rain. Broken clouds.8 mph89%29.77 "Hg5 mi
2:30 PM81 °FBroken clouds.5 mph94%29.77 "Hg5 mi
2:00 PM81 °FBroken clouds.8 mph89%29.80 "Hg6 mi
1:30 PM81 °FScattered showers. Broken clouds.7 mph89%29.80 "Hg5 mi
1:00 PM79 °FBroken clouds.6 mph94%29.83 "HgN/A
12:30 PM79 °FLight rain. Broken clouds.8 mph94%29.83 "HgN/A
12:00 PM81 °FBroken clouds.9 mph89%29.83 "HgN/A
11:30 AM84 °FBroken clouds.16 mph74%29.86 "HgN/A
11:00 AM84 °FBroken clouds.10 mph79%29.86 "HgN/A
10:30 AM82 °FBroken clouds.2 mph84%29.89 "HgN/A
10:00 AM81 °FBroken clouds.3 mph89%29.89 "HgN/A
9:30 AM79 °FBroken clouds.3 mph94%29.89 "HgN/A
9:00 AM79 °FBroken clouds.5 mph89%29.89 "HgN/A
8:30 AM77 °FBroken clouds.3 mph94%29.89 "HgN/A
8:00 AM77 °FLight rain. Broken clouds.7 mph94%29.86 "HgN/A
7:30 AM77 °FLight rain. Broken clouds.3 mph94%29.86 "Hg4 mi
7:00 AM77 °FBroken clouds.5 mph94%29.83 "Hg5 mi
6:30 AM77 °FLight rain. Broken clouds.5 mph94%29.83 "Hg5 mi
6:00 AM77 °FPartly cloudy.No wind94%29.80 "Hg5 mi
5:00 AM77 °FPartly cloudy.7 mph94%29.80 "HgN/A
3:30 AM77 °FPartly cloudy.3 mph94%29.80 "HgN/A
3:00 AM77 °FPartly cloudy.5 mph94%29.83 "HgN/A
2:30 AM77 °FPartly cloudy.No wind94%29.83 "HgN/A
2:00 AM77 °FPartly cloudy.No wind94%29.83 "HgN/A
1:30 AM77 °FPartly cloudy.3 mph94%29.86 "HgN/A
1:00 AM79 °FPartly cloudy.3 mph89%29.86 "HgN/A
12:30 AM79 °FPartly cloudy.7 mph89%29.89 "HgN/A
12:00 AM79 °FPartly cloudy.5 mph89%29.89 "HgN/A
11:30 PM
Dec 19
81 °FPartly cloudy.5 mph84%29.89 "HgN/A
11:00 PM79 °FPartly cloudy.7 mph84%29.89 "HgN/A
10:30 PM79 °FPartly cloudy.7 mph84%29.89 "HgN/A
10:00 PM79 °FPartly cloudy.6 mph89%29.92 "HgN/A
9:30 PM79 °FPartly cloudy.6 mph89%29.92 "HgN/A
9:00 PM79 °FLight rain. Partly cloudy.6 mph89%29.92 "HgN/A
8:30 PM77 °FPassing clouds.5 mph94%29.89 "HgN/A
8:00 PM77 °FPassing clouds.3 mph94%29.89 "HgN/A
7:30 PM77 °FPassing clouds.5 mph94%29.89 "HgN/A
7:00 PM79 °FPassing clouds.3 mph89%29.86 "HgN/A
Weather by CustomWeather, © 2014

See weather overviewHow to use our weather pages